{"data":{"norad_id":57789,"intl_designator":"2023-134U","name":"STARLINK-30372","alt_names":[],"object_type":"PAYLOAD","status":"ACTIVE","operator":null,"country":"US","launch_date":"2023-09-04","launch_site_code":"AFETR","launch_vehicle":null,"mission":null,"orbit_class":"UNKNOWN","rcs_meters":null,"size_class":null,"mass_kg":null,"dimensions":null,"purposes":["comms"],"wikipedia_slug":null,"has_3d_model":false,"image_url":null,"decayed_at":null,"tle_current":{"epoch":"2026-05-24T21:35:16.895040Z","epoch_age_seconds":80129,"freshness":"FRESH","line1":"1 57789U 23134U   26144.89950110  .00001604  00000+0  67800-4 0  9994","line2":"2 57789  43.0002   7.9822 0001305 270.0885  89.9818 15.27581898152526","mean_motion":15.27581898,"eccentricity":0.0001305,"inclination_deg":43.0002,"raan_deg":7.9822,"arg_perigee_deg":270.0885,"mean_anomaly_deg":89.9818,"bstar":6.78e-5,"rev_number":15252,"period_min":94.266631588482,"perigee_km":482.14802870687,"apogee_km":483.9387967946,"semimajor_km":6861.1804127507,"source":"CELESTRAK","updated_at":"2026-05-25T13:38:18.407788Z"}}}